Weather History for KHXD - November, 2012

Change the Weather History Date:

Thursday, November 29, 2012

  Actual Average Record
Temperature  
Mean Temperature 50 °F -  
Max Temperature 60 °F 67 °F 81 °F (1985)
Min Temperature 41 °F 46 °F 27 °F (1955)
Degree Days  
Heating Degree Days 14    
Moisture  
Dew Point 49 °F    
Average Humidity 96    
Maximum Humidity 100    
Minimum Humidity 63    
Precipitation  
Precipitation 0.00 in - - ()
Sea Level Pressure  
Sea Level Pressure 30.40 in    
Wind  
Wind Speed 5 mph (NNE)    
Max Wind Speed 12 mph    
Max Gust Speed 17 mph    
Visibility 9 miles    
Events      
Averages and records for this station are not official NWS values.
T = Trace of Precipitation, MM = Missing Value Source: NWS Daily Summary

Daily Weather History Graph

Daily Weather History Graph

Search for Another Location

Airport or City:

Trip Planner

Search our weather history database for the weather conditions in past years. The results will help you decide how hot, cold, wet, or windy it might be!

Date:

Astronomy

Nov. 29, 2012 Rise Set
Actual Time 7:04 AM EST 5:17 PM EST
Civil Twilight 6:38 AM EST 5:44 PM EST
Nautical Twilight 6:07 AM EST 6:14 PM EST
Astronomical Twilight 5:38 AM EST 6:44 PM EST
Moon 6:19 PM EST (11/29) 7:49 AM EST (11/29)
Length of Visible Light 11h 06m
Length of Day
10h 13m
Full, 99% of the Moon is Illuminated
Nov 29
Full
Dec 6
Last Quarter
Dec 13
New
Dec 20
First Quarter
Dec 28
Full

Hourly Weather History & Observations

Time (EST) Temp. Windchill Dew Point Humidity Pressure Visibility Wind Dir Wind Speed Gust Speed Precip Events Conditions
12:15 AM 42.8 °F 41.1 °F 42.8 °F 100% 30.39 in 5.0 mi North 3.5 mph - 0.00 in   Clear
12:35 AM 42.8 °F 40.1 °F 42.8 °F 100% 30.39 in 6.0 mi North 4.6 mph - 0.00 in   Clear
12:55 AM 42.8 °F 40.1 °F 42.8 °F 100% 30.39 in 5.0 mi North 4.6 mph - 0.00 in   Clear
1:15 AM 42.8 °F 41.1 °F 42.8 °F 100% 30.39 in 3.0 mi NNE 3.5 mph - 0.00 in   Clear
1:35 AM 42.8 °F 40.1 °F 42.8 °F 100% 30.39 in 6.0 mi NNE 4.6 mph - 0.00 in   Clear
1:55 AM 42.8 °F 41.1 °F 42.8 °F 100% 30.39 in 6.0 mi NNE 3.5 mph - 0.00 in   Clear
2:15 AM 41.0 °F 39.0 °F 41.0 °F 100% 30.40 in 4.0 mi NNE 3.5 mph - 0.00 in   Clear
2:35 AM 41.0 °F 39.0 °F 41.0 °F 100% 30.40 in 4.0 mi NE 3.5 mph - 0.00 in   Clear
2:55 AM 41.0 °F 38.0 °F 41.0 °F 100% 30.40 in 6.0 mi NNE 4.6 mph - 0.00 in   Clear
3:15 AM 41.0 °F 37.1 °F 41.0 °F 100% 30.40 in 9.0 mi North 5.8 mph - 0.00 in   Clear
3:35 AM 41.0 °F 38.0 °F 41.0 °F 100% 30.39 in 10.0 mi North 4.6 mph - 0.00 in   Clear
3:55 AM 42.8 °F 39.3 °F 42.8 °F 100% 30.40 in 10.0 mi NNE 5.8 mph - 0.00 in   Clear
4:15 AM 44.6 °F 41.4 °F 44.6 °F 100% 30.39 in 10.0 mi NNE 5.8 mph - 0.00 in   Clear
4:35 AM 44.6 °F 41.4 °F 44.6 °F 100% 30.39 in 10.0 mi NNE 5.8 mph - 0.00 in   Clear
4:55 AM 46.4 °F 43.5 °F 46.4 °F 100% 30.39 in 10.0 mi NNE 5.8 mph - 0.00 in   Clear
5:15 AM 46.4 °F 43.5 °F 46.4 °F 100% 30.39 in 10.0 mi NNE 5.8 mph - 0.00 in   Clear
5:35 AM 46.4 °F 43.5 °F 46.4 °F 100% 30.39 in 10.0 mi North 5.8 mph - 0.00 in   Clear
6:50 AM 50.0 °F - 42.8 °F 76% 30.41 in 10.0 mi North 6.9 mph - N/A   Clear
7:50 AM 50.0 °F - 41.0 °F 71% 30.42 in 10.0 mi North 6.9 mph - N/A   Clear
8:50 AM 50.0 °F - 41.0 °F 71% 30.44 in 10.0 mi North 6.9 mph - N/A   Clear
9:50 AM 53.6 °F - 42.8 °F 67% 30.44 in 10.0 mi North 6.9 mph - N/A   Clear
10:55 AM 57.2 °F - 57.2 °F 100% 30.45 in 10.0 mi NNE 11.5 mph - N/A   Clear
11:50 AM 59.0 °F - 59.0 °F 100% 30.44 in 10.0 mi NNE 11.5 mph 17.3 mph N/A   Clear
12:55 PM 60.8 °F - 60.8 °F 100% 30.42 in 10.0 mi NE 10.4 mph - N/A   Clear
1:50 PM 60.8 °F - 60.8 °F 100% 30.40 in 10.0 mi NE 9.2 mph - N/A   Clear
2:50 PM 60.8 °F - 48.2 °F 63% 30.38 in 10.0 mi ENE 6.9 mph - N/A   Clear
3:50 PM 59.0 °F - 59.0 °F 100% 30.38 in 10.0 mi ENE 10.4 mph - N/A   Clear
4:50 PM 57.2 °F - 57.2 °F 100% 30.38 in 10.0 mi ENE 5.8 mph - N/A   Clear
5:50 PM 55.4 °F - 55.4 °F 100% 30.38 in 10.0 mi ENE 4.6 mph - N/A   Partly Cloudy
6:50 PM 53.6 °F - 53.6 °F 100% 30.38 in 10.0 mi NE 5.8 mph - N/A   Partly Cloudy
7:50 PM 53.6 °F - 53.6 °F 100% 30.39 in 10.0 mi NE 4.6 mph - N/A   Scattered Clouds
8:15 PM 53.6 °F - 53.6 °F 100% 30.39 in 10.0 mi NNE 5.8 mph - 0.00 in   Mostly Cloudy
8:35 PM 53.6 °F - 53.6 °F 100% 30.39 in 10.0 mi NNE 6.9 mph - 0.00 in   Scattered Clouds
8:55 PM 53.6 °F - 53.6 °F 100% 30.39 in 10.0 mi NNE 5.8 mph - 0.00 in   Clear
9:15 PM 53.6 °F - 53.6 °F 100% 30.39 in 10.0 mi NNE 5.8 mph - 0.00 in   Clear
9:35 PM 53.6 °F - 53.6 °F 100% 30.40 in 10.0 mi North 5.8 mph - 0.00 in   Clear
9:55 PM 53.6 °F - 53.6 °F 100% 30.40 in 10.0 mi NNE 5.8 mph - 0.00 in   Scattered Clouds
10:15 PM 53.6 °F - 53.6 °F 100% 30.40 in 10.0 mi North 5.8 mph - 0.00 in   Mostly Cloudy
10:35 PM 53.6 °F - 53.6 °F 100% 30.40 in 10.0 mi North 6.9 mph - 0.00 in   Scattered Clouds
10:55 PM 53.6 °F - 53.6 °F 100% 30.40 in 10.0 mi NNE 8.1 mph - 0.00 in   Partly Cloudy
11:15 PM 53.6 °F - 53.6 °F 100% 30.39 in 10.0 mi North 6.9 mph - 0.00 in   Clear
11:35 PM 53.6 °F - 53.6 °F 100% 30.39 in 10.0 mi NNE 6.9 mph - 0.00 in   Clear
11:55 PM 53.6 °F - 53.6 °F 100% 30.38 in 10.0 mi North 6.9 mph - 0.00 in   Clear